Weather History for West Palm Beach, FL

Change the Weather History Date:

Thursday, April 24, 2014

  Actual Average Record
Temperature  
Mean Temperature 76 °F 75 °F  
Max Temperature 85 °F 83 °F 95 °F (1988)
Min Temperature 67 °F 67 °F 53 °F (2012)
Degree Days  
Heating Degree Days 0 0  
Month to date heating degree days 0 0  
Since 1 July heating degree days 122 229  
Cooling Degree Days 11 10  
Month to date cooling degree days 243 203  
Year to date cooling degree days 791 631  
Growing Degree Days 25 (Base 50)    
Moisture  
Dew Point 65 °F    
Average Humidity 66    
Maximum Humidity 84    
Minimum Humidity 48    
Precipitation  
Precipitation 0.00 in 0.11 in 3.63 in (1982)
Month to date precipitation 1.04 3.05  
Year to date precipitation 14.92 13.59  
Snow  
Snow 0.00 in - - ()
Month to date snowfall 0.0  
Since 1 July snowfall 0.0  
Snow Depth 0.00 in    
Sea Level Pressure  
Sea Level Pressure 29.97 in    
Wind  
Wind Speed 8 mph (SSE)    
Max Wind Speed 18 mph    
Max Gust Speed 23 mph    
Visibility 10 miles    
Events      
T = Trace of Precipitation, MM = Missing Value Source: NWS Daily Summary

Daily Weather History Graph

Daily Weather History Graph

Search for Another Location

Airport:

Trip Planner

Search our weather history database for the weather conditions in past years. The results will help you decide how hot, cold, wet, or windy it might be!

Date:

Astronomy

Apr. 24, 2014 Rise Set
Actual Time 6:48 AM EDT 7:49 PM EDT
Civil Twilight 6:24 AM EDT 8:13 PM EDT
Nautical Twilight 5:55 AM EDT 8:41 PM EDT
Astronomical Twilight 5:26 AM EDT 9:11 PM EDT
Moon 3:29 AM EDT 3:29 PM EDT
Length of Visible Light 13h 49m
Length of Day
13h 00m
Waning Crescent, 24% of the Moon is Illuminated
Apr 24
Waning Crescent
Apr 29
New
May 6
First Quarter
May 14
Full
May 21
Last Quarter

Hourly Weather History & Observations

Time (EDT) Temp. Heat Index Dew Point Humidity Pressure Visibility Wind Dir Wind Speed Gust Speed Precip Events Conditions
12:53 AM 73.0 °F - 66.0 °F 79% 29.95 in 10.0 mi WSW 4.6 mph - N/A   Scattered Clouds
1:53 AM 70.0 °F - 64.0 °F 81% 29.94 in 10.0 mi WNW 3.5 mph - N/A   Partly Cloudy
2:53 AM 70.0 °F - 62.1 °F 76% 29.93 in 10.0 mi WSW 5.8 mph - N/A   Partly Cloudy
3:53 AM 68.0 °F - 61.0 °F 78% 29.93 in 10.0 mi WNW 5.8 mph - N/A   Partly Cloudy
4:53 AM 68.0 °F - 61.0 °F 78% 29.93 in 10.0 mi Calm Calm - N/A   Partly Cloudy
5:53 AM 66.9 °F - 61.0 °F 81% 29.94 in 10.0 mi Calm Calm - N/A   Partly Cloudy
6:53 AM 68.0 °F - 62.1 °F 81% 29.95 in 10.0 mi Calm Calm - N/A   Partly Cloudy
7:53 AM 71.1 °F - 64.0 °F 78% 29.98 in 10.0 mi Calm Calm - N/A   Partly Cloudy
8:53 AM 78.1 °F - 66.0 °F 66% 29.99 in 10.0 mi Calm Calm - N/A   Partly Cloudy
9:53 AM 81.0 °F 83.8 °F 68.0 °F 65% 30.00 in 10.0 mi SE 5.8 mph - N/A   Scattered Clouds
10:53 AM 82.0 °F 84.1 °F 66.0 °F 58% 30.01 in 10.0 mi SSE 10.4 mph - N/A   Scattered Clouds
11:53 AM 84.0 °F 85.4 °F 64.0 °F 51% 30.01 in 10.0 mi East 9.2 mph - N/A   Mostly Cloudy
12:53 PM 84.0 °F 85.4 °F 64.0 °F 51% 30.00 in 10.0 mi SSE 9.2 mph 19.6 mph N/A   Scattered Clouds
1:53 PM 84.0 °F 84.5 °F 62.1 °F 47% 29.99 in 10.0 mi SE 12.7 mph 18.4 mph N/A   Scattered Clouds
2:53 PM 84.0 °F 85.4 °F 64.0 °F 51% 29.96 in 10.0 mi ESE 13.8 mph - N/A   Scattered Clouds
3:53 PM 84.0 °F 85.8 °F 64.9 °F 53% 29.95 in 10.0 mi SE 15.0 mph - N/A   Partly Cloudy
4:53 PM 82.9 °F 85.0 °F 66.0 °F 56% 29.95 in 10.0 mi ESE 15.0 mph - N/A   Partly Cloudy
5:53 PM 82.0 °F 84.5 °F 66.9 °F 60% 29.95 in 10.0 mi SE 13.8 mph - N/A   Partly Cloudy
6:53 PM 80.1 °F 82.3 °F 66.9 °F 64% 29.94 in 10.0 mi ESE 13.8 mph - N/A   Partly Cloudy
7:53 PM 78.1 °F - 66.9 °F 68% 29.95 in 10.0 mi SE 11.5 mph - N/A   Partly Cloudy
8:53 PM 78.1 °F - 66.9 °F 68% 29.97 in 10.0 mi SSE 11.5 mph - N/A   Partly Cloudy
9:53 PM 78.1 °F - 66.9 °F 68% 29.98 in 10.0 mi SSE 10.4 mph - N/A   Partly Cloudy
10:53 PM 77.0 °F - 66.9 °F 71% 29.99 in 10.0 mi South 6.9 mph - N/A   Partly Cloudy
11:53 PM 75.9 °F - 66.9 °F 74% 29.98 in 10.0 mi SSE 4.6 mph - N/A   Partly Cloudy